| time (UTC) | temp C | wind direction | speed KPH | gust KPH | rain 1hr cm | rain 24hr cm | rain mn cm | humidity % | barometer mb |
| 20260502123606 | 21 | 158 | 4.8 | 8.0 | 0.00 | 0.00 | 0.00 | 45 | 1015.3 |
| 20260502122706 | 21 | 232 | 6.4 | 12.9 | 0.00 | 0.00 | 0.00 | 45 | 1015.3 |
| 20260502121806 | 21 | 203 | 6.4 | 12.9 | 0.00 | 0.00 | 0.00 | 46 | 1015.5 |
| 20260502120906 | 21 | 193 | 6.4 | 8.0 | 0.00 | 0.00 | 0.00 | 45 | 1015.7 |
| 20260502115427 | 20 | 130 | 4.8 | 6.4 | 0.00 | 0.00 | 0.00 | 45 | 1015.9 |
| 20260502114506 | 20 | 88 | 6.4 | 9.7 | 0.00 | 0.00 | 0.00 | 45 | 1016.2 |
| 20260502113606 | 20 | 158 | 4.8 | 9.7 | 0.00 | 0.00 | 0.00 | 49 | 1016.4 |
| 20260502112706 | 20 | 165 | 6.4 | 9.7 | 0.00 | 0.00 | 0.00 | 50 | 1016.2 |
| 20260502111827 | 20 | 171 | 6.4 | 9.7 | 0.00 | 0.00 | 0.00 | 51 | 1016.4 |
| 20260502110906 | 20 | 183 | 3.2 | 6.4 | 0.00 | 0.00 | 0.00 | 54 | 1016.6 |
| 20260502110027 | 19 | 167 | 4.8 | 8.0 | 0.00 | 0.00 | 0.00 | 54 | 1016.7 |
| 20260502105406 | 19 | 209 | 4.8 | 6.4 | 0.00 | 0.00 | 0.00 | 53 | 1016.9 |
| 20260502104527 | 18 | 201 | 6.4 | 9.7 | 0.00 | 0.00 | 0.00 | 54 | 1017.0 |
| 20260502103606 | 18 | 172 | 4.8 | 8.0 | 0.00 | 0.00 | 0.00 | 56 | 1017.1 |
| 20260502102706 | 18 | 237 | 4.8 | 8.0 | 0.00 | 0.00 | 0.00 | 58 | 1017.2 |
| 20260502101806 | 18 | 184 | 4.8 | 8.0 | 0.00 | 0.00 | 0.00 | 57 | 1017.3 |
| 20260502100906 | 17 | 161 | 3.2 | 6.4 | 0.00 | 0.00 | 0.00 | 57 | 1017.4 |
| 20260502090927 | 15 | 147 | 3.2 | 8.0 | 0.00 | 0.00 | 0.00 | 77 | 1017.8 |
| 20260502070906 | 10 | 195 | 1.6 | 6.4 | 0.00 | 0.00 | 0.00 | 95 | 1018.5 |
| 20260502070006 | 10 | 252 | 1.6 | 4.8 | 0.00 | 0.00 | 0.00 | 95 | 1018.7 |
| 20260502065427 | 10 | 213 | 1.6 | 4.8 | 0.00 | 0.00 | 0.00 | 95 | 1018.5 |
| 20260502064506 | 10 | 199 | 1.6 | 6.4 | 0.00 | 0.00 | 0.00 | 95 | 1018.5 |
| 20260502063606 | 10 | 170 | 4.8 | 6.4 | 0.00 | 0.00 | 0.00 | 95 | 1018.6 |
| 20260502062706 | 10 | 174 | 1.6 | 6.4 | 0.00 | 0.00 | 0.00 | 95 | 1018.6 |
| 20260502061827 | 10 | 180 | 0.0 | 6.4 | 0.00 | 0.00 | 0.00 | 94 | 1018.6 |
| 20260502060906 | 10 | 0 | 0.0 | 0.0 | 0.00 | 0.00 | 0.00 | 94 | 1018.6 |
| 20260502060006 | 10 | 0 | 0.0 | 0.0 | 0.00 | 0.00 | 0.00 | 94 | 1018.7 |
| 20260502055406 | 10 | 0 | 0.0 | 0.0 | 0.00 | 0.00 | 0.00 | 94 | 1018.5 |
| 20260502054527 | 10 | 0 | 0.0 | 0.0 | 0.00 | 0.00 | 0.00 | 95 | 1018.5 |
| 20260502053606 | 10 | 0 | 0.0 | 0.0 | 0.00 | 0.00 | 0.00 | 95 | 1018.5 |
| 20260502052706 | 10 | 0 | 0.0 | 0.0 | 0.00 | 0.00 | 0.00 | 95 | 1018.6 |
| 20260502051806 | 9 | 0 | 0.0 | 0.0 | 0.00 | 0.00 | 0.00 | 95 | 1018.5 |
| 20260502050906 | 9 | 0 | 0.0 | 0.0 | 0.00 | 0.00 | 0.00 | 95 | 1018.5 |
| 20260502050006 | 9 | 247 | 1.6 | 6.4 | 0.00 | 0.00 | 0.00 | 95 | 1018.5 |
| 20260502044506 | 10 | 236 | 1.6 | 6.4 | 0.00 | 0.00 | 0.00 | 94 | 1018.4 |
| 20260502043606 | 10 | 225 | 1.6 | 4.8 | 0.00 | 0.00 | 0.00 | 94 | 1018.3 |
| 20260502042706 | 10 | 240 | 1.6 | 3.2 | 0.00 | 0.00 | 0.00 | 93 | 1018.5 |
| 20260502041806 | 10 | 251 | 1.6 | 6.4 | 0.00 | 0.00 | 0.00 | 94 | 1018.6 |
| 20260502040906 | 10 | 225 | 3.2 | 6.4 | 0.00 | 0.00 | 0.00 | 94 | 1018.6 |
| 20260502040006 | 10 | 225 | 1.6 | 6.4 | 0.00 | 0.00 | 0.00 | 94 | 1018.6 |
| 20260502035406 | 10 | 202 | 0.0 | 4.8 | 0.00 | 0.00 | 0.00 | 93 | 1018.6 |
| 20260502034506 | 9 | 225 | 1.6 | 4.8 | 0.00 | 0.00 | 0.00 | 93 | 1018.7 |
| 20260502033606 | 9 | 242 | 1.6 | 6.4 | 0.00 | 0.00 | 0.00 | 93 | 1018.6 |
| 20260502032706 | 9 | 204 | 1.6 | 6.4 | 0.00 | 0.00 | 0.00 | 93 | 1018.7 |
| 20260502031806 | 10 | 176 | 3.2 | 6.4 | 0.00 | 0.00 | 0.00 | 93 | 1018.9 |
| 20260502030927 | 9 | 225 | 0.0 | 1.6 | 0.00 | 0.00 | 0.00 | 92 | 1018.9 |
| 20260502030006 | 9 | 180 | 0.0 | 3.2 | 0.00 | 0.00 | 0.00 | 92 | 1018.8 |
| 20260502025406 | 10 | 180 | 0.0 | 3.2 | 0.00 | 0.00 | 0.00 | 92 | 1018.9 |
| 20260502024506 | 10 | 216 | 0.0 | 1.6 | 0.00 | 0.00 | 0.00 | 91 | 1018.9 |
| 20260502023606 | 10 | 221 | 1.6 | 4.8 | 0.00 | 0.00 | 0.00 | 91 | 1018.9 |
| 20260502022727 | 10 | 245 | 0.0 | 4.8 | 0.00 | 0.00 | 0.00 | 91 | 1018.9 |
| 20260502021806 | 10 | 223 | 1.6 | 6.4 | 0.00 | 0.00 | 0.00 | 91 | 1018.9 |
| 20260502020906 | 10 | 250 | 0.0 | 3.2 | 0.00 | 0.00 | 0.00 | 90 | 1018.9 |
| 20260502020027 | 10 | 0 | 0.0 | 0.0 | 0.00 | 0.00 | 0.00 | 90 | 1019.0 |
| 20260502015405 | 10 | 225 | 0.0 | 3.2 | 0.00 | 0.00 | 0.00 | 90 | 1019.1 |
| 20260502014506 | 10 | 0 | 0.0 | 0.0 | 0.00 | 0.00 | 0.00 | 90 | 1019.0 |
| 20260502013605 | 10 | 0 | 0.0 | 0.0 | 0.00 | 0.00 | 0.00 | 90 | 1019.1 |
| 20260502012706 | 10 | 0 | 0.0 | 0.0 | 0.00 | 0.00 | 0.00 | 89 | 1019.1 |
| 20260502011806 | 10 | 0 | 0.0 | 0.0 | 0.00 | 0.00 | 0.00 | 89 | 1019.2 |
| 20260502010905 | 10 | 0 | 0.0 | 0.0 | 0.00 | 0.00 | 0.00 | 89 | 1019.2 |
| 20260502010006 | 10 | 0 | 0.0 | 0.0 | 0.00 | 0.00 | 0.00 | 88 | 1019.2 |
| 20260502005405 | 10 | 0 | 0.0 | 0.0 | 0.00 | 0.00 | 0.00 | 88 | 1019.3 |
| 20260502004527 | 10 | 202 | 0.0 | 4.8 | 0.00 | 0.00 | 0.00 | 88 | 1019.4 |
| 20260502003605 | 11 | 0 | 0.0 | 0.0 | 0.00 | 0.00 | 0.00 | 86 | 1019.7 |
| 20260502002705 | 11 | 0 | 0.0 | 0.0 | 0.00 | 0.00 | 0.00 | 86 | 1019.8 |
| 20260502001805 | 11 | 0 | 0.0 | 0.0 | 0.00 | 0.00 | 0.00 | 85 | 1019.9 |
| 20260502000906 | 11 | 0 | 0.0 | 0.0 | 0.00 | 0.00 | 0.00 | 83 | 1019.9 |
| 20260502000006 | 11 | 0 | 0.0 | 0.0 | 0.00 | 0.00 | 0.00 | 83 | 1019.9 |
| 20260501235406 | 11 | 0 | 0.0 | 0.0 | 0.00 | 0.00 | 0.00 | 83 | 1020.0 |
| 20260501234505 | 11 | 0 | 0.0 | 0.0 | 0.00 | 0.00 | 0.00 | 82 | 1019.9 |
| 20260501233605 | 11 | 0 | 0.0 | 0.0 | 0.00 | 0.00 | 0.00 | 82 | 1020.0 |
| 20260501232706 | 11 | 0 | 0.0 | 0.0 | 0.00 | 0.00 | 0.00 | 81 | 1020.1 |
| 20260501231805 | 11 | 0 | 0.0 | 0.0 | 0.00 | 0.00 | 0.00 | 81 | 1020.0 |
| 20260501230905 | 11 | 0 | 0.0 | 0.0 | 0.00 | 0.00 | 0.00 | 80 | 1020.0 |
| 20260501230006 | 12 | 225 | 0.0 | 4.8 | 0.00 | 0.00 | 0.00 | 79 | 1020.1 |
| 20260501225405 | 12 | 225 | 0.0 | 4.8 | 0.00 | 0.00 | 0.00 | 78 | 1020.2 |
| 20260501224527 | 12 | 209 | 1.6 | 6.4 | 0.00 | 0.00 | 0.00 | 78 | 1020.0 |
| 20260501223606 | 12 | 182 | 4.8 | 6.4 | 0.00 | 0.00 | 0.00 | 78 | 1020.0 |
| 20260501222706 | 12 | 184 | 3.2 | 6.4 | 0.00 | 0.00 | 0.00 | 77 | 1020.0 |
| 20260501221826 | 12 | 254 | 1.6 | 8.0 | 0.00 | 0.00 | 0.00 | 76 | 1020.0 |
| 20260501220905 | 12 | 249 | 1.6 | 8.0 | 0.00 | 0.00 | 0.00 | 75 | 1019.9 |
| 20260501220026 | 13 | 187 | 3.2 | 6.4 | 0.00 | 0.00 | 0.00 | 75 | 1019.9 |
| 20260501215405 | 13 | 178 | 1.6 | 6.4 | 0.00 | 0.00 | 0.00 | 75 | 1019.9 |
| 20260501214506 | 13 | 183 | 3.2 | 6.4 | 0.00 | 0.00 | 0.00 | 75 | 1019.9 |
| 20260501213605 | 13 | 168 | 3.2 | 6.4 | 0.00 | 0.00 | 0.00 | 73 | 1020.0 |
| 20260501212705 | 14 | 207 | 1.6 | 4.8 | 0.00 | 0.00 | 0.00 | 73 | 1020.0 |
| 20260501211826 | 14 | 182 | 1.6 | 4.8 | 0.00 | 0.00 | 0.00 | 73 | 1020.0 |
| 20260501210905 | 14 | 209 | 1.6 | 4.8 | 0.00 | 0.00 | 0.00 | 72 | 1019.9 |
| 20260501210005 | 15 | 168 | 1.6 | 6.4 | 0.00 | 0.00 | 0.00 | 72 | 1019.8 |
| 20260501205405 | 15 | 148 | 3.2 | 6.4 | 0.00 | 0.00 | 0.00 | 71 | 1019.8 |
| 20260501204505 | 15 | 174 | 3.2 | 4.8 | 0.00 | 0.00 | 0.00 | 71 | 1019.7 |
| 20260501203605 | 15 | 159 | 3.2 | 11.3 | 0.00 | 0.00 | 0.00 | 70 | 1019.7 |
| 20260501202705 | 15 | 204 | 3.2 | 6.4 | 0.00 | 0.00 | 0.00 | 70 | 1019.7 |
| 20260501201805 | 15 | 161 | 1.6 | 4.8 | 0.00 | 0.00 | 0.00 | 69 | 1019.6 |
| 20260501200905 | 16 | 182 | 1.6 | 6.4 | 0.00 | 0.00 | 0.00 | 67 | 1019.7 |
| 20260501200005 | 16 | 213 | 3.2 | 6.4 | 0.00 | 0.00 | 0.00 | 66 | 1019.6 |
| 20260501195405 | 16 | 263 | 0.0 | 4.8 | 0.00 | 0.00 | 0.00 | 65 | 1019.6 |
| 20260501194505 | 16 | 225 | 0.0 | 3.2 | 0.00 | 0.00 | 0.00 | 64 | 1019.4 |
| 20260501193605 | 17 | 230 | 1.6 | 4.8 | 0.00 | 0.00 | 0.00 | 63 | 1019.4 |
| 20260501192726 | 17 | 193 | 1.6 | 6.4 | 0.00 | 0.00 | 0.00 | 63 | 1019.4 |
| 20260501191805 | 17 | 194 | 4.8 | 6.4 | 0.00 | 0.00 | 0.00 | 62 | 1019.4 |
| 20260501190905 | 17 | 176 | 1.6 | 6.4 | 0.00 | 0.00 | 0.00 | 62 | 1019.4 |
| 20260501190005 | 17 | 158 | 3.2 | 6.4 | 0.00 | 0.00 | 0.00 | 63 | 1019.1 |
| 20260501185405 | 18 | 191 | 3.2 | 6.4 | 0.00 | 0.00 | 0.00 | 62 | 1019.1 |
| 20260501184526 | 18 | 257 | 3.2 | 6.4 | 0.00 | 0.00 | 0.00 | 62 | 1019.3 |
| 20260501183605 | 18 | 209 | 6.4 | 12.9 | 0.00 | 0.00 | 0.00 | 61 | 1019.2 |
| 20260501182705 | 18 | 240 | 8.0 | 12.9 | 0.00 | 0.00 | 0.00 | 61 | 1019.1 |
| 20260501181805 | 18 | 225 | 9.7 | 14.5 | 0.00 | 0.00 | 0.00 | 61 | 1019.1 |
| 20260501180926 | 19 | 225 | 8.0 | 14.5 | 0.00 | 0.00 | 0.00 | 60 | 1019.0 |
| 20260501180005 | 19 | 255 | 6.4 | 9.7 | 0.00 | 0.00 | 0.00 | 60 | 1018.9 |
| 20260501175405 | 19 | 236 | 6.4 | 9.7 | 0.00 | 0.00 | 0.00 | 59 | 1018.9 |
| 20260501174505 | 20 | 256 | 9.7 | 14.5 | 0.00 | 0.00 | 0.00 | 59 | 1018.8 |
| 20260501173605 | 20 | 243 | 9.7 | 14.5 | 0.00 | 0.00 | 0.00 | 58 | 1018.8 |
| 20260501172705 | 20 | 238 | 12.9 | 16.1 | 0.00 | 0.00 | 0.00 | 57 | 1018.8 |
| 20260501171826 | 20 | 250 | 9.7 | 19.3 | 0.00 | 0.00 | 0.00 | 56 | 1018.9 |
| 20260501170905 | 21 | 240 | 8.0 | 12.9 | 0.00 | 0.00 | 0.00 | 56 | 1018.9 |
| 20260501170005 | 21 | 255 | 11.3 | 19.3 | 0.00 | 0.00 | 0.00 | 55 | 1019.0 |
| 20260501165405 | 21 | 223 | 11.3 | 14.5 | 0.00 | 0.00 | 0.00 | 56 | 1018.8 |
| 20260501164505 | 21 | 267 | 9.7 | 14.5 | 0.00 | 0.00 | 0.00 | 55 | 1019.0 |
| 20260501163626 | 21 | 216 | 9.7 | 14.5 | 0.00 | 0.00 | 0.00 | 57 | 1018.9 |
| 20260501162705 | 21 | 217 | 9.7 | 12.9 | 0.00 | 0.00 | 0.00 | 58 | 1019.0 |
| 20260501161805 | 21 | 211 | 9.7 | 17.7 | 0.00 | 0.00 | 0.00 | 57 | 1019.1 |
| 20260501160905 | 21 | 249 | 9.7 | 16.1 | 0.00 | 0.00 | 0.00 | 56 | 1019.1 |
| 20260501160026 | 21 | 224 | 9.7 | 14.5 | 0.00 | 0.00 | 0.00 | 55 | 1019.2 |
| 20260501155405 | 21 | 248 | 8.0 | 16.1 | 0.00 | 0.00 | 0.00 | 55 | 1019.1 |
| 20260501154505 | 21 | 227 | 8.0 | 12.9 | 0.00 | 0.00 | 0.00 | 53 | 1019.0 |
| 20260501153605 | 22 | 183 | 8.0 | 12.9 | 0.00 | 0.00 | 0.00 | 52 | 1019.1 |
| 20260501152705 | 22 | 204 | 11.3 | 17.7 | 0.00 | 0.00 | 0.00 | 50 | 1019.1 |
| 20260501151805 | 23 | 206 | 9.7 | 17.7 | 0.00 | 0.00 | 0.00 | 52 | 1019.2 |
| 20260501150926 | 23 | 192 | 11.3 | 17.7 | 0.00 | 0.00 | 0.00 | 51 | 1019.2 |
| 20260501150005 | 23 | 247 | 9.7 | 17.7 | 0.00 | 0.00 | 0.00 | 51 | 1019.3 |
| 20260501145405 | 23 | 219 | 11.3 | 24.1 | 0.00 | 0.00 | 0.00 | 50 | 1019.3 |
| 20260501144526 | 24 | 205 | 9.7 | 24.1 | 0.00 | 0.00 | 0.00 | 51 | 1019.2 |
| 20260501143626 | 23 | 214 | 8.0 | 16.1 | 0.00 | 0.00 | 0.00 | 49 | 1019.1 |
| 20260501142705 | 24 | 227 | 8.0 | 14.5 | 0.00 | 0.00 | 0.00 | 48 | 1019.1 |